Location: Skalnate Pleso
(49.1889°N, 20.2450°E)
Time: 00:50:27
(UTC+01:00)

Meteor 1-31 Rocket - Pass Details

Date: 19 November 2019
Orbit: 522 x 547 km, 97.6° (Epoch: 11 December)

Event Time Altitude Azimuth Distance (km) Brightness Sun altitude
Rises 04:35:23 0° 11° (N) 2,681 6.4 -22.4°
Reaches altitude 10° 04:37:30 10° 9° (N) 1,790 5.5 -22.1°
Enters shadow 04:40:25 48° 350° (N) 702 3.2 -21.6°
